International Falls, MN

11:01 PM CDT on March 26, 2017 (GMT -0500)
Falls International

Weather History for KINL - March, 2013

Change the Weather History Date:

Sunday, March 10, 2013

  Actual Average Record
Temperature  
Mean Temperature 20 °F 20 °F  
Max Temperature 31 °F 32 °F 59 °F (2012)
Min Temperature 8 °F 10 °F -34 °F (1948)
Degree Days  
Heating Degree Days 45 44  
Month to date heating degree days 488 465  
Since 1 July heating degree days 8045 8048  
Cooling Degree Days 0 0  
Month to date cooling degree days 0 0  
Year to date cooling degree days 0 0  
Moisture  
Dew Point 19 °F    
Average Humidity 77    
Maximum Humidity 100    
Minimum Humidity 53    
Precipitation  
Precipitation T in 0.02 in 0.75 in (2009)
Month to date precipitation 0.64 0.24  
Year to date precipitation 4.30 1.43  
Snow  
Snow T in 0.20 in 13.10 in (2009)
Month to date snowfall 6.6 2.9  
Since 1 July snowfall 76.9 59.7  
Snow Depth 26.00 in    
Sea Level Pressure  
Sea Level Pressure 30.03 in    
Wind  
Wind Speed 10 mph (NNW)    
Max Wind Speed 20 mph    
Max Gust Speed 24 mph    
Visibility 9 miles    
Events      
T = Trace of Precipitation, MM = Missing Value Source: NWS Daily Summary

Daily Weather History Graph

Daily Weather History Graph

Search for Another Location

Airport or City:

Trip Planner

Search our weather history database for the weather conditions in past years. The results will help you decide how hot, cold, wet, or windy it might be!

Date:

Astronomy

Mar. 10, 2013 Rise Set
Actual Time 7:36 AM CDT 7:11 PM CDT
Civil Twilight 7:05 AM CDT 7:43 PM CDT
Nautical Twilight 6:28 AM CDT 8:19 PM CDT
Astronomical Twilight 5:52 AM CDT 8:56 PM CDT
Moon 6:40 AM CDT (3/10) 6:19 PM CDT (3/10)
Length of Visible Light 12h 37m
Length of Day
11h 35m
Waning Crescent, 2% of the Moon is Illuminated
Mar 10
Waning Crescent
Mar 11
New
Mar 19
First Quarter
Mar 27
Full
Apr 2
Last Quarter

Hourly Weather History & Observations

Time (CDT) Temp. Windchill Dew Point Humidity Pressure Visibility Wind Dir Wind Speed Gust Speed Precip Events Conditions
12:08 AM 30.2 °F 20.8 °F 30.2 °F 100% 29.82 in 3.0 mi NW 11.5 mph - N/A   Overcast
12:24 AM 30.2 °F 20.8 °F 30.2 °F 100% 29.83 in 5.0 mi NW 11.5 mph - N/A   Overcast
12:55 AM 30.9 °F 21.7 °F 28.9 °F 92% 29.89 in 6.0 mi NW 11.5 mph - N/A   Overcast
1:02 AM 30.2 °F 21.3 °F 28.4 °F 93% 29.84 in 6.0 mi NW 10.4 mph - N/A   Overcast
1:13 AM 30.2 °F 21.3 °F 28.4 °F 93% 29.85 in 6.0 mi NW 10.4 mph - N/A   Overcast
1:20 AM 30.2 °F 20.8 °F 28.4 °F 93% 29.85 in 6.0 mi NW 11.5 mph - N/A   Overcast
1:55 AM 28.9 °F 18.6 °F 26.1 °F 89% 29.91 in 9.0 mi WNW 12.7 mph - N/A   Overcast
3:55 AM 27.0 °F 16.1 °F 24.1 °F 89% 29.93 in 10.0 mi NW 12.7 mph - N/A   Overcast
4:20 AM 26.6 °F 16.8 °F 24.8 °F 93% 29.88 in 10.0 mi NW 10.4 mph - N/A   Overcast
4:55 AM 27.0 °F 16.1 °F 24.1 °F 89% 29.95 in 10.0 mi NW 12.7 mph - N/A   Overcast
5:55 AM 26.1 °F 16.2 °F 23.0 °F 88% 29.98 in 10.0 mi NW 10.4 mph - N/A   Overcast
6:55 AM 26.6 °F 16.8 °F 23.0 °F 86% 29.95 in 10.0 mi NW 10.4 mph - N/A   Overcast
7:55 AM 25.0 °F 12.2 °F 21.0 °F 85% 30.06 in 10.0 mi NW 16.1 mph - N/A   Overcast
8:28 AM 24.8 °F 12.4 °F 21.2 °F 86% 30.01 in 7.0 mi NNW 15.0 mph - N/A   Overcast
8:55 AM 25.0 °F 13.1 °F 21.0 °F 85% 30.08 in 4.0 mi NW 13.8 mph - N/A   Overcast
9:50 AM 24.8 °F 11.9 °F 19.4 °F 80% 30.03 in 7.0 mi NNW 16.1 mph - N/A   Overcast
9:55 AM 25.0 °F 12.6 °F 19.9 °F 81% 30.10 in 7.0 mi NNW 15.0 mph - N/A   Overcast
10:55 AM 25.0 °F 12.6 °F 18.0 °F 75% 30.12 in 9.0 mi NNW 15.0 mph - 0.00 in   Overcast
11:55 AM 25.0 °F 12.6 °F 18.0 °F 75% 30.12 in 10.0 mi North 15.0 mph 24.2 mph N/A   Overcast
12:55 PM 26.1 °F 14.0 °F 18.0 °F 71% 30.11 in 10.0 mi NNW 15.0 mph - N/A   Overcast
1:55 PM 26.1 °F 16.2 °F 17.1 °F 69% 30.11 in 10.0 mi NNW 10.4 mph - N/A   Overcast
2:55 PM 28.0 °F 18.6 °F 17.1 °F 63% 30.12 in 10.0 mi North 10.4 mph - N/A   Mostly Cloudy
3:34 PM 28.4 °F 18.5 °F 15.8 °F 59% 30.06 in 10.0 mi NNE 11.5 mph - N/A   Scattered Clouds
3:55 PM 28.0 °F 19.3 °F 15.1 °F 58% 30.11 in 10.0 mi NNE 9.2 mph - N/A   Clear
4:55 PM 28.0 °F 19.3 °F 15.1 °F 58% 30.12 in 10.0 mi NNE 9.2 mph - N/A   Clear
5:55 PM 28.0 °F 21.7 °F 14.0 °F 56% 30.12 in 10.0 mi NE 5.8 mph - N/A   Clear
6:55 PM 26.1 °F 20.5 °F 12.0 °F 55% 30.12 in 10.0 mi NNE 4.6 mph - N/A   Clear
7:55 PM 24.1 °F 19.7 °F 12.0 °F 60% 30.12 in 10.0 mi NE 3.5 mph - N/A   Clear
8:55 PM 21.9 °F 14.5 °F 12.0 °F 66% 30.12 in 10.0 mi NNE 5.8 mph - N/A   Clear
9:55 PM 19.0 °F 12.3 °F 10.0 °F 68% 30.12 in 10.0 mi NE 4.6 mph - N/A   Clear
10:55 PM 17.1 °F 11.7 °F 8.1 °F 68% 30.13 in 10.0 mi NE 3.5 mph - N/A   Clear
11:55 PM 10.4 °F - 6.8 °F 85% 30.05 in 10.0 mi Calm Calm - N/A   Clear
12:55 AM 8.1 °F -0.5 °F 5.0 °F 87% 30.11 in 10.0 mi North 4.6 mph - N/A   Clear